NGN18K EDDK-EDXW

Flight info

Callsign NGN18K
Flight time 0h 55m
Altitude 34000
Route PODIP4X PODIP Y867 PELUN DCT ANZIV DCT WRB Y867 TOLGI DCT SAS P605 SUBIG L619 ELSOB/N0413F230 Y348 OMWEG M105 EXNEL/N0422F240 DCT OLDIP
Aircraft A320/M-SDE3FGHIRWY/LB1

Departure

Time 2026-04-12 11:03
Airport Cologne Bonn Airport (EDDK)

Arrival

Time 2026-04-12 11:59
Airport Westerland Sylt Airport (EDXW)
Time Latitude Longitude Altitude Speed Heading
2026-04-12 10:47 50.88198 7.11903 235 ft 0 kts 216°
2026-04-12 10:55 50.88203 7.11908 232 ft 3 kts 216°
2026-04-12 10:55 50.88217 7.11924 235 ft 2 kts 216°
2026-04-12 10:56 50.88231 7.11941 235 ft 3 kts 216°
2026-04-12 10:56 50.88245 7.11957 234 ft 3 kts 206°
2026-04-12 10:56 50.88262 7.11965 235 ft 3 kts 170°
2026-04-12 10:56 50.88279 7.11955 235 ft 3 kts 134°
2026-04-12 10:57 50.88285 7.11944 233 ft 0 kts 116°
2026-04-12 10:59 50.88284 7.11948 234 ft 1 kts 116°
2026-04-12 10:59 50.88273 7.11985 234 ft 8 kts 116°
2026-04-12 10:59 50.88236 7.12074 232 ft 11 kts 126°
2026-04-12 11:00 50.88184 7.12186 232 ft 14 kts 126°
2026-04-12 11:00 50.88155 7.12343 232 ft 16 kts 89°
2026-04-12 11:00 50.88087 7.12498 232 ft 19 kts 137°
2026-04-12 11:00 50.88012 7.12607 232 ft 7 kts 137°
2026-04-12 11:01 50.88010 7.12611 232 ft 0 kts 137°
2026-04-12 11:01 50.88009 7.12611 232 ft 0 kts 137°
2026-04-12 11:01 50.88009 7.12612 232 ft 0 kts 137°
2026-04-12 11:01 50.88001 7.12624 232 ft 3 kts 134°
2026-04-12 11:02 50.87988 7.12668 235 ft 6 kts 102°
2026-04-12 11:02 50.87993 7.12738 235 ft 9 kts 81°
2026-04-12 11:02 50.88010 7.12866 239 ft 16 kts 77°
2026-04-12 11:02 50.87965 7.13031 239 ft 19 kts 132°
2026-04-12 11:03 50.87793 7.13273 239 ft 62 kts 138°
2026-04-12 11:03 50.87306 7.13980 242 ft 124 kts 137°
2026-04-12 11:03 50.86559 7.15075 320 ft 163 kts 137°
2026-04-12 11:03 50.85744 7.16303 1069 ft 161 kts 137°
2026-04-12 11:04 50.84917 7.17501 2087 ft 162 kts 139°
2026-04-12 11:04 50.84053 7.18712 2728 ft 168 kts 141°
2026-04-12 11:04 50.83149 7.19965 3260 ft 180 kts 140°
2026-04-12 11:04 50.82304 7.21636 3614 ft 210 kts 126°
2026-04-12 11:05 50.81680 7.23873 4102 ft 235 kts 111°
2026-04-12 11:05 50.81371 7.26544 4683 ft 257 kts 102°
2026-04-12 11:05 50.81122 7.29443 5333 ft 275 kts 101°
2026-04-12 11:05 50.80868 7.32473 6236 ft 279 kts 99°
2026-04-12 11:06 50.80593 7.35544 7112 ft 285 kts 101°
2026-04-12 11:06 50.80301 7.38688 7924 ft 292 kts 101°
2026-04-12 11:06 50.79997 7.41898 8771 ft 298 kts 101°
2026-04-12 11:06 50.79687 7.45167 9584 ft 304 kts 100°
2026-04-12 11:07 50.79374 7.48502 10348 ft 312 kts 100°
2026-04-12 11:07 50.79046 7.52022 10640 ft 336 kts 98°
2026-04-12 11:07 50.79012 7.55782 10850 ft 359 kts 83°
2026-04-12 11:07 50.79706 7.59667 11163 ft 375 kts 64°
2026-04-12 11:08 50.81124 7.63138 11789 ft 379 kts 46°
2026-04-12 11:08 50.83039 7.66012 12512 ft 381 kts 39°
2026-04-12 11:08 50.85024 7.68824 13248 ft 385 kts 39°
2026-04-12 11:08 50.87026 7.71661 13984 ft 388 kts 39°
2026-04-12 11:09 50.89049 7.74531 14608 ft 393 kts 39°
2026-04-12 11:09 50.91096 7.77433 15218 ft 397 kts 39°
2026-04-12 11:09 50.93144 7.80413 15810 ft 402 kts 43°
2026-04-12 11:09 50.94944 7.83847 16402 ft 409 kts 53°
2026-04-12 11:10 50.96440 7.87726 17015 ft 415 kts 58°
2026-04-12 11:10 50.97906 7.91699 17634 ft 419 kts 58°
2026-04-12 11:10 50.99385 7.95712 18255 ft 424 kts 58°
2026-04-12 11:10 51.00881 7.99771 18845 ft 428 kts 58°
2026-04-12 11:11 51.02395 8.03876 19407 ft 432 kts 58°
2026-04-12 11:11 51.03923 8.08023 19956 ft 437 kts 58°
2026-04-12 11:11 51.05466 8.12215 20499 ft 441 kts 58°
2026-04-12 11:11 51.07018 8.16444 21018 ft 445 kts 58°
2026-04-12 11:12 51.08578 8.20710 21519 ft 449 kts 58°
2026-04-12 11:12 51.10151 8.25020 22002 ft 452 kts 58°
2026-04-12 11:12 51.11732 8.29361 22458 ft 455 kts 58°
2026-04-12 11:12 51.13323 8.33743 22928 ft 459 kts 58°
2026-04-12 11:13 51.14922 8.38161 23386 ft 462 kts 58°
2026-04-12 11:13 51.16529 8.42616 23790 ft 466 kts 58°
2026-04-12 11:13 51.18142 8.47103 24159 ft 468 kts 59°
2026-04-12 11:13 51.19797 8.51594 24525 ft 471 kts 55°
2026-04-12 11:14 51.21764 8.55771 24883 ft 472 kts 47°
2026-04-12 11:14 51.23880 8.59777 25226 ft 474 kts 47°
2026-04-12 11:14 51.26010 8.63824 25572 ft 477 kts 47°
2026-04-12 11:14 51.28152 8.67908 25922 ft 480 kts 47°
2026-04-12 11:15 51.30297 8.72011 26265 ft 483 kts 47°
2026-04-12 11:15 51.32429 8.76100 26600 ft 486 kts 47°
2026-04-12 11:15 51.34596 8.80267 26947 ft 489 kts 47°
2026-04-12 11:15 51.36776 8.84465 27278 ft 492 kts 47°
2026-04-12 11:16 51.38966 8.88682 27602 ft 495 kts 47°
2026-04-12 11:16 51.41176 8.92930 27921 ft 497 kts 47°
2026-04-12 11:16 51.43395 8.97195 28239 ft 500 kts 47°
2026-04-12 11:16 51.45625 9.01493 28567 ft 502 kts 47°
2026-04-12 11:17 51.47853 9.05801 29014 ft 501 kts 47°
2026-04-12 11:17 51.50123 9.10038 29461 ft 499 kts 43°
2026-04-12 11:17 51.52658 9.13804 29913 ft 495 kts 34°
2026-04-12 11:17 51.55348 9.17276 30335 ft 494 kts 34°
2026-04-12 11:18 51.58030 9.20744 30717 ft 495 kts 34°
2026-04-12 11:18 51.60709 9.24213 31092 ft 495 kts 34°
2026-04-12 11:18 51.63390 9.27693 31477 ft 495 kts 34°
2026-04-12 11:18 51.66070 9.31179 31864 ft 495 kts 34°
2026-04-12 11:19 51.68749 9.34678 32248 ft 496 kts 34°
2026-04-12 11:19 51.71431 9.38190 32613 ft 496 kts 34°
2026-04-12 11:19 51.74113 9.41705 33018 ft 496 kts 34°
2026-04-12 11:19 51.76795 9.45218 33420 ft 497 kts 33°
2026-04-12 11:20 51.79478 9.48734 33807 ft 497 kts 33°
2026-04-12 11:20 51.82188 9.52213 34046 ft 496 kts 29°
2026-04-12 11:20 51.88111 9.57610 34083 ft 492 kts 19°
2026-04-12 11:21 51.94226 9.62610 34080 ft 493 kts 20°
2026-04-12 11:21 52.00333 9.67659 34077 ft 493 kts 20°
2026-04-12 11:22 52.06433 9.72762 34076 ft 493 kts 20°
2026-04-12 11:22 52.12539 9.77882 34079 ft 493 kts 20°
2026-04-12 11:23 52.18643 9.83006 34087 ft 494 kts 20°
2026-04-12 11:23 52.24782 9.87979 34089 ft 488 kts 14°
2026-04-12 11:24 52.31193 9.91121 34093 ft 479 kts
2026-04-12 11:24 52.37637 9.93933 34095 ft 480 kts
2026-04-12 11:25 52.44092 9.96763 34101 ft 480 kts
2026-04-12 11:25 52.50553 9.99631 34099 ft 481 kts
2026-04-12 11:26 52.57020 10.02515 34102 ft 482 kts
2026-04-12 11:26 52.63490 10.05398 34102 ft 482 kts
2026-04-12 11:27 52.69928 10.08278 34103 ft 482 kts
2026-04-12 11:27 52.76414 10.11099 34102 ft 478 kts
2026-04-12 11:28 52.79670 10.11814 34105 ft 467 kts 353°
2026-04-12 11:28 52.82896 10.11952 34106 ft 463 kts 351°
2026-04-12 11:28 52.88259 10.12113 34110 ft 464 kts 351°
2026-04-12 11:29 52.94715 10.12331 34107 ft 464 kts 351°
2026-04-12 11:29 53.01175 10.12550 34100 ft 464 kts 351°
2026-04-12 11:30 53.07639 10.12769 34098 ft 465 kts 351°
2026-04-12 11:30 53.14110 10.12990 34093 ft 465 kts 351°
2026-04-12 11:31 53.20581 10.13207 34096 ft 465 kts 351°
2026-04-12 11:31 53.27057 10.13405 34096 ft 465 kts 351°
2026-04-12 11:32 53.33544 10.13616 34129 ft 472 kts 350°
2026-04-12 11:32 53.40039 10.12777 34080 ft 461 kts 335°
2026-04-12 11:33 53.43070 10.11293 34079 ft 448 kts 327°
2026-04-12 11:33 53.45858 10.09159 34082 ft 435 kts 319°
2026-04-12 11:33 53.48364 10.06451 34087 ft 422 kts 310°
2026-04-12 11:33 53.50551 10.03277 34083 ft 410 kts 303°
2026-04-12 11:34 53.53955 9.95902 34087 ft 391 kts 290°
2026-04-12 11:34 53.56421 9.87844 34089 ft 387 kts 287°
2026-04-12 11:35 53.58816 9.79796 34095 ft 387 kts 287°
2026-04-12 11:35 53.61229 9.71614 34097 ft 388 kts 286°
2026-04-12 11:36 53.63974 9.63761 34095 ft 406 kts 299°
2026-04-12 11:36 53.66077 9.60427 34093 ft 426 kts 311°
2026-04-12 11:36 53.68702 9.57875 34084 ft 448 kts 325°
2026-04-12 11:37 53.71771 9.56396 34075 ft 471 kts 340°
2026-04-12 11:37 53.75036 9.55646 34085 ft 474 kts 341°
2026-04-12 11:37 53.81570 9.54170 34071 ft 473 kts 341°
2026-04-12 11:38 53.88100 9.52651 34075 ft 473 kts 340°
2026-04-12 11:38 53.94630 9.51115 34064 ft 474 kts 340°
2026-04-12 11:39 53.97906 9.50406 33942 ft 479 kts 343°
2026-04-12 11:39 54.01296 9.50241 32749 ft 499 kts 353°
2026-04-12 11:39 54.04816 9.50963 31340 ft 514 kts
2026-04-12 11:39 54.08356 9.52119 29383 ft 522 kts
2026-04-12 11:40 54.11936 9.53315 27246 ft 525 kts
2026-04-12 11:40 54.15530 9.54526 25238 ft 526 kts
2026-04-12 11:40 54.19080 9.55721 23860 ft 514 kts
2026-04-12 11:40 54.22513 9.56872 23337 ft 495 kts
2026-04-12 11:41 54.25886 9.57980 23076 ft 492 kts
2026-04-12 11:41 54.29243 9.59045 22787 ft 486 kts
2026-04-12 11:41 54.32522 9.59210 22518 ft 458 kts 346°
2026-04-12 11:41 54.35476 9.57838 22371 ft 425 kts 329°
2026-04-12 11:42 54.37920 9.55340 22243 ft 396 kts 313°
2026-04-12 11:42 54.39780 9.52070 22108 ft 370 kts 298°
2026-04-12 11:42 54.41020 9.48383 21977 ft 345 kts 285°
2026-04-12 11:43 54.42945 9.41101 21570 ft 328 kts 287°
2026-04-12 11:43 54.43912 9.37576 21177 ft 325 kts 287°
2026-04-12 11:43 54.44871 9.34073 20756 ft 323 kts 287°
2026-04-12 11:43 54.45821 9.30576 20188 ft 325 kts 287°
2026-04-12 11:44 54.46786 9.26967 19315 ft 338 kts 287°
2026-04-12 11:44 54.47775 9.23236 18447 ft 349 kts 287°
2026-04-12 11:44 54.48796 9.19379 17442 ft 359 kts 288°
2026-04-12 11:44 54.49850 9.15419 16401 ft 369 kts 289°
2026-04-12 11:45 54.50933 9.11358 15418 ft 378 kts 289°
2026-04-12 11:45 54.52034 9.07241 14704 ft 379 kts 290°
2026-04-12 11:45 54.53102 9.03261 14545 ft 363 kts 290°
2026-04-12 11:45 54.54135 8.99413 14429 ft 346 kts 290°
2026-04-12 11:46 54.55118 8.95731 14293 ft 331 kts 290°
2026-04-12 11:46 54.56058 8.92195 14181 ft 318 kts 289°
2026-04-12 11:46 54.56955 8.88795 14059 ft 306 kts 289°
2026-04-12 11:46 54.57815 8.85507 13939 ft 295 kts 289°
2026-04-12 11:47 54.58643 8.82339 13810 ft 285 kts 289°
2026-04-12 11:47 54.59449 8.79271 13681 ft 276 kts 289°
2026-04-12 11:47 54.60231 8.76305 13545 ft 268 kts 289°
2026-04-12 11:47 54.60993 8.73428 13374 ft 261 kts 289°
2026-04-12 11:48 54.61493 8.71537 13086 ft 263 kts 289°
2026-04-12 11:48 54.62008 8.69565 12823 ft 263 kts 289°
2026-04-12 11:48 54.62900 8.66791 12483 ft 268 kts 303°
2026-04-12 11:48 54.64075 8.64276 12145 ft 269 kts 304°
2026-04-12 11:49 54.65252 8.61772 11834 ft 268 kts 304°
2026-04-12 11:49 54.66424 8.59276 11519 ft 267 kts 304°
2026-04-12 11:49 54.67572 8.56804 11208 ft 266 kts 304°
2026-04-12 11:49 54.68721 8.54296 10914 ft 266 kts 304°
2026-04-12 11:50 54.69861 8.51789 10624 ft 265 kts 304°
2026-04-12 11:50 54.70995 8.49278 10337 ft 264 kts 304°
2026-04-12 11:50 54.72119 8.46768 10071 ft 264 kts 304°
2026-04-12 11:50 54.73235 8.44258 9770 ft 261 kts 304°
2026-04-12 11:51 54.74339 8.41776 9212 ft 260 kts 304°
2026-04-12 11:51 54.75440 8.39307 8664 ft 258 kts 304°
2026-04-12 11:51 54.76532 8.36859 8135 ft 256 kts 304°
2026-04-12 11:51 54.77618 8.34426 7615 ft 254 kts 304°
2026-04-12 11:52 54.78739 8.32077 7109 ft 254 kts 312°
2026-04-12 11:52 54.80122 8.30165 6591 ft 255 kts 321°
2026-04-12 11:52 54.81566 8.28386 6114 ft 254 kts 321°
2026-04-12 11:52 54.82997 8.26622 5588 ft 251 kts 321°
2026-04-12 11:53 54.84404 8.24887 5418 ft 249 kts 321°
2026-04-12 11:53 54.85818 8.23136 5280 ft 247 kts 320°
2026-04-12 11:53 54.87219 8.21400 4978 ft 247 kts 320°
2026-04-12 11:53 54.88623 8.19653 4591 ft 249 kts 320°
2026-04-12 11:54 54.90034 8.17893 4263 ft 248 kts 320°
2026-04-12 11:54 54.91434 8.16147 3960 ft 247 kts 321°
2026-04-12 11:54 54.92824 8.14415 3649 ft 245 kts 321°
2026-04-12 11:54 54.94327 8.13003 3331 ft 248 kts 342°
2026-04-12 11:55 54.96041 8.12823 3016 ft 250 kts 10°
2026-04-12 11:55 54.97644 8.13943 2707 ft 249 kts 28°
2026-04-12 11:55 54.99143 8.15433 2406 ft 248 kts 37°
2026-04-12 11:55 55.00190 8.17742 2078 ft 243 kts 70°
2026-04-12 11:56 55.00412 8.20580 1798 ft 233 kts 102°
2026-04-12 11:56 54.99851 8.22998 1768 ft 202 kts 128°
2026-04-12 11:56 54.99011 8.24812 1613 ft 181 kts 143°
2026-04-12 11:56 54.98056 8.26015 1471 ft 159 kts 151°
2026-04-12 11:57 54.97171 8.26982 1275 ft 144 kts 153°
2026-04-12 11:57 54.96353 8.27825 1133 ft 139 kts 152°
2026-04-12 11:57 54.95561 8.28861 974 ft 146 kts 146°
2026-04-12 11:57 54.94749 8.29916 762 ft 145 kts 149°
2026-04-12 11:58 54.93920 8.30888 561 ft 141 kts 151°
2026-04-12 11:58 54.93117 8.31829 365 ft 138 kts 148°
2026-04-12 11:58 54.92353 8.32787 199 ft 133 kts 149°
2026-04-12 11:58 54.91610 8.33688 61 ft 120 kts 146°
2026-04-12 11:59 54.91137 8.34267 60 ft 59 kts 146°
2026-04-12 11:59 54.90940 8.34485 52 ft 14 kts 129°
2026-04-12 11:59 54.90945 8.34526 54 ft 4 kts 344°
2026-04-12 11:59 54.90997 8.34460 60 ft 15 kts 323°
2026-04-12 12:00 54.91107 8.34321 60 ft 24 kts 324°
2026-04-12 12:00 54.91263 8.34123 56 ft 27 kts 324°
2026-04-12 12:00 54.91300 8.33951 51 ft 12 kts 219°
2026-04-12 12:00 54.91234 8.33788 55 ft 20 kts 239°
2026-04-12 12:01 54.91162 8.33566 51 ft 23 kts 241°
2026-04-12 12:01 54.91077 8.33319 54 ft 24 kts 237°
2026-04-12 12:01 54.91073 8.33182 52 ft 11 kts 344°
2026-04-12 12:01 54.91156 8.33179 54 ft 13 kts 359°
2026-04-12 12:02 54.91257 8.33177 55 ft 16 kts
2026-04-12 12:02 54.91359 8.33252 56 ft 16 kts
2026-04-12 12:02 54.91386 8.33172 58 ft 10 kts 277°
2026-04-12 12:02 54.91387 8.33136 58 ft 3 kts 270°
2026-04-12 12:03 54.91387 8.33124 58 ft 0 kts 270°